Location: Nickerson Gardens
(33.9320°N, 118.2484°W)
Time: 04:56:57
(UTC+00:00)

N. Korean satellite - Pass Details

Date: 30 January 2021
Orbit: 451 x 502 km, 97.2° (Epoch: 08 March)

Event Time Altitude Azimuth Distance (km) Brightness Sun altitude
Rises 13:31:18 0° 4° (N) 2,477 10.1 -16.8°
Reaches altitude 10° 13:33:24 10° 359° (N) 1,595 9.1 -16.3°
Maximum altitude 13:36:41 48° 284° (WNW) 602 6.6 -15.7°
Drops below altitude 10° 13:39:57 10° 209° (SSW) 1,576 9.0 -15.0°
Sets 13:42:00 0° 204° (SSW) 2,444 10.0 -14.6°
